User: anonymous   Login
Location: Unspecified
(0.0000°N, 0.0000°E)
Time: 15:18:18
(UTC+00:00)
Language:

CANX 3A (UNIBRITE) - Orbit

View from above orbital plane
View from above orbital plane
View from above satellite
View from above satellite

Ground track
Ground track

The orbit data is extracted from the following two-line orbital elements,

1 39092U 13009G   16149.88010890  .00000027  00000-0  25037-4 0  9991
2 39092  98.5813 351.4840 0009522   7.8543 352.2789 14.34849529170361
Epoch (UTC): 28 May 2016 21:07:21
Eccentricity: 0.0009522
inclination: 98.5813°
perigee height: 769 km
apogee height: 782 km
right ascension of ascending node: 351.4840°
argument of perigee: 7.8543°
revolutions per day: 14.34849529
mean anomaly at epoch: 352.2789°
orbit number at epoch: 17036

The dashed part of the orbit path shows where the satellite is in the earth's shadow,  

DLR